[[{"header":{"parameterUnit":"m.s-1","parameterCategory":1,"la1":30.2991,"la2":30.254,"lo1":-89.0895,"lo2":-89.0444,"dy":0.0017,"dx":0.0017,"nx":28,"ny":28,"refTime":"2025-01-04T09:00:00:Z","depth":0,"parameterNumber":2,"parameterNumberName":"U-component_of_WINDS"},"data":[0,0,0,0,0,0,0,0,0,0,0,0,0,0,0,0,0,0,0,0,0,0,0,0,0,0,0,0,0,0,0,0,0,0,0,0,0,0,0,0,0,0,0,0,0,0,0,0,0,0,0,0,0,0,0,0,0,0,-1.0208,-1.0208,0,-1.0218,-1.0218,-1.0219,-1.0243,-1.0243,-1.0243,-1.0244,-1.0254,-1.0254,-1.0254,0,0,0,0,0,0,0,0,0,0,0,0,0,-1.0209,-1.0208,-1.0208,-1.0208,-1.0208,-1.0218,-1.0218,-1.0219,-1.0242,-1.0243,-1.0244,-1.0244,-1.0254,-1.0254,-1.0254,0,0,0,0,0,0,0,0,0,0,0,0,0,-1.0213,-1.0208,-1.0208,-1.0221,-1.0223,-1.0218,-1.0218,-1.0219,-1.0242,-1.0243,-1.0244,-1.0244,-1.0254,-1.0254,-1.0254,-1.0237,0,0,-1.0253,-1.0253,0,0,0,0,0,0,0,0,-1.0212,-1.0212,-1.0219,-1.0221,-1.0222,-1.023,-1.0222,-1.0225,-1.0242,-1.0235,-1.0244,-1.0245,-1.0245,-1.0246,-1.0246,-1.0237,-1.0238,-1.0253,-1.0253,-1.0252,-1.0252,0,0,0,0,0,0,0,-1.0212,-1.0212,-1.0212,-1.0219,-1.0221,-1.0227,-1.0228,-1.0223,-1.0236,-1.0236,-1.0237,-1.0238,-1.0246,-1.0246,-1.0247,-1.0238,-1.0253,-1.0253,-1.0252,-1.0252,-1.0215,-1.0214,0,0,0,0,0,0,-1.021,-1.0212,-1.0212,-1.0212,-1.0219,-1.0226,-1.0228,-1.0227,-1.0236,-1.0238,-1.0238,-1.0239,-1.0247,-1.0247,-1.0247,-1.0227,-1.0252,-1.0252,-1.0252,-1.0216,-1.0215,-1.0214,0,0,0,0,0,0,-1.021,-1.021,-1.0211,-1.0213,-1.0213,-1.0225,-1.0224,-1.0226,-1.0227,-1.0237,-1.024,-1.0235,-1.0247,-1.0247,-1.0239,-1.0228,-1.0252,-1.0252,-1.0217,-1.0215,-1.0214,-1.0188,0,0,0,0,0,0,-1.021,-1.0209,-1.0203,-1.0212,-1.0213,-1.0203,-1.0223,-1.0226,-1.0226,-1.0228,-1.0236,-1.0238,-1.0248,-1.0239,-1.0239,-1.0228,-1.0252,-1.0218,-1.0216,-1.0215,-1.019,-1.0186,-1.0182,0,0,0,0,0,-1.021,-1.0196,-1.0203,-1.0203,-1.0206,-1.0203,-1.0203,-1.0215,-1.0225,-1.0219,-1.0226,-1.0238,-1.0229,-1.0238,-1.0238,-1.0227,-1.0219,-1.0217,-1.0215,-1.0191,-1.0186,-1.0182,0,0,0,0,0,0,-1.0185,-1.0197,-1.0205,-1.0194,-1.0197,-1.0207,-1.0199,-1.0209,-1.021,-1.0212,-1.0226,-1.0228,-1.0217,-1.0221,-1.0231,-1.0211,-1.0226,-1.0224,-1.0208,-1.0204,-1.02,-1.0199,-1.0251,0,0,0,0,0,-1.0179,-1.0175,-1.0186,-1.0175,-1.0176,-1.0187,-1.0186,-1.0195,-1.0199,-1.02,-1.0207,-1.021,-1.0208,-1.0206,-1.0205,-1.0191,-1.0192,-1.0183,-1.0179,-1.0176,-1.0174,-1.0166,-1.0161,-1.0208,-1.0208,-1.0208,0,0,-1.0165,-1.0171,-1.0168,-1.017,-1.0173,-1.0169,-1.0188,-1.0183,-1.018,-1.0199,-1.0192,-1.0196,-1.0201,-1.0189,-1.0184,-1.0192,-1.0161,-1.0174,-1.0171,-1.0171,-1.0163,-1.0159,-1.0155,-1.0207,-1.0207,-1.0207,0,0,-1.0137,-1.0142,-1.0132,-1.0135,-1.014,-1.0148,-1.0145,-1.0153,-1.0157,-1.015,-1.0164,-1.016,-1.0157,-1.0159,-1.016,-1.0132,-1.0143,-1.0132,-1.0112,-1.0104,-1.01,-1.0097,-1.0086,-1.0082,-1.013,-1.013,-1.013,0,-1.0119,-1.0113,-1.0126,-1.012,-1.012,-1.0137,-1.0128,-1.013,-1.0134,-1.0134,-1.0143,-1.0138,-1.0143,-1.0131,-1.0124,-1.0125,-1.0122,-1.013,-1.01,-1.0097,-1.0094,-1.0084,-1.008,-1.0128,-1.0128,-1.0128,-1.0129,0,-1.009,-1.0086,-1.0078,-1.0081,-1.0081,-1.0073,-1.0084,-1.0082,-1.009,-1.0097,-1.0088,-1.0094,-1.0094,-1.0092,-1.0101,-1.0082,-1.0086,-1.0097,-1.0113,-1.0088,-1.0078,-1.0075,-1.0126,-1.0126,-1.0127,-1.0127,0,0,-1.0047,-1.0058,-1.0054,-1.0056,-1.0062,-1.0059,-1.0052,-1.0051,-1.0049,-1.0051,-1.0045,-1.0041,-1.0051,-1.0052,-1.0061,-1.0054,-1.003,-1.0066,-1.0066,-1.0058,-1.0008,-0.9999,-0.9994,-1.0038,-1.0037,-1.0036,-1.0007,0,-1.0021,-1.0008,-1.0019,-1.0005,-1.0001,-1.0017,-1.001,-1.0013,-1.0019,-1.0016,-1.0023,-1.002,-1.0034,-1.0034,-1.0028,-1.0034,-1.002,-1.0037,-1.0031,-1.0031,-1.0028,-0.999,-0.998,-0.9952,-1.0004,-1.0003,-1.0003,0,-0.9988,-0.9988,-0.9973,-0.9979,-0.9978,-0.9972,-0.9972,-0.9969,-0.9973,-0.9977,-0.9978,-0.9989,-0.9981,-0.9997,-0.9987,-0.9998,-0.9996,-0.9999,-0.9998,-0.9997,-1.0015,-0.9987,-0.9944,-0.9939,-0.9997,-0.9998,-0.9998,0,-0.9956,-0.9953,-0.9943,-0.9944,-0.9952,-0.9947,-0.995,-0.9954,-0.9953,-0.9953,-0.9953,-0.9952,-0.9951,-0.9951,-0.9961,-0.9972,-0.9949,-0.9966,-0.9952,-0.9952,-0.9946,-0.9946,-0.9901,-0.9946,-0.9946,-0.9946,-0.9947,0,-0.9925,-0.9914,-0.9929,-0.9923,-0.9912,-0.9925,-0.9913,-0.9918,-0.9922,-0.9917,-0.9931,-0.9926,-0.994,-0.9936,-0.9944,-0.9934,-0.9934,-0.9937,-0.9939,-0.9935,-0.9934,-0.9933,-0.9935,-0.9945,-0.9946,-0.9946,-0.9946,0,-0.9888,-0.9897,-0.9887,-0.9895,-0.9897,-0.9888,-0.9895,-0.989,-0.9896,-0.9889,-0.9889,-0.9899,-0.9895,-0.9905,-0.9903,-0.9909,-0.9893,-0.9899,-0.9892,-0.9893,-0.9878,-0.9879,-0.9831,-0.9825,-0.9875,-0.9874,-0.9874,0,-0.9866,-0.9859,-0.9866,-0.9863,-0.9865,-0.9861,-0.986,-0.9872,-0.987,-0.9873,-0.9867,-0.9864,-0.9863,-0.9856,-0.9863,-0.9861,-0.9866,-0.9849,-0.9866,-0.9862,-0.9864,-0.9864,-0.9863,-0.9845,-0.9845,-0.9844,-0.9844,0,-0.9827,-0.9832,-0.9829,-0.9828,-0.9826,-0.9826,-0.9827,-0.9824,-0.9837,-0.9834,-0.983,-0.9829,-0.9826,-0.9823,-0.9823,-0.9826,-0.9836,-0.9839,-0.9835,-0.9831,-0.9826,-0.9827,-0.9881,-0.984,-0.984,-0.984,-0.9841,-0.9841,-0.9797,-0.979,-0.9794,-0.979,-0.9792,-0.9792,-0.9787,-0.9793,-0.979,-0.9788,-0.9796,-0.979,-0.9793,-0.9794,-0.9796,-0.9791,-0.9799,-0.9794,-0.9792,-0.9791,-0.9788,-0.9828,-0.9791,-0.9791,-0.9791,-0.9791,-0.9792,0,-0.9757,-0.976,-0.9757,-0.9757,-0.9754,-0.9765,-0.9766,-0.9763,-0.9757,-0.9759,-0.9757,-0.9752,-0.9749,-0.9756,-0.9754,-0.9748,-0.9753,-0.9747,-0.9747,-0.9748,-0.9782,-0.9784,-0.9743,-0.9743,-0.9743,-0.9743,-0.9743,-0.9743,-0.9736,-0.9725,-0.9731,-0.9721,-0.9724,-0.9718,-0.9718,-0.9718,-0.9719,-0.9713,-0.971,-0.9715,-0.9718,-0.9716,-0.9714,-0.9716,-0.9714,-0.9706,-0.9709,-0.9741,-0.9745,-0.975,-0.9752,-0.9706,-0.9705,-0.9676,-0.9676,-0.9675]},{"header":{"parameterUnit":"m.s-1","parameterCategory":1,"la1":30.2991,"la2":30.254,"lo1":-89.0895,"lo2":-89.0444,"dy":0.0017,"dx":0.0017,"nx":28,"ny":28,"refTime":"2025-01-04T09:00:00:Z","depth":0,"parameterNumber":3,"parameterNumberName":"V-component_of_WINDS"},"data":[0,0,0,0,0,0,0,0,0,0,0,0,0,0,0,0,0,0,0,0,0,0,0,0,0,0,0,0,0,0,0,0,0,0,0,0,0,0,0,0,0,0,0,0,0,0,0,0,0,0,0,0,0,0,0,0,0,0,6.2129,6.2131,0,6.2317,6.2319,6.2321,6.2354,6.2352,6.2351,6.2349,6.2537,6.2544,6.255,0,0,0,0,0,0,0,0,0,0,0,0,0,6.1796,6.1802,6.2129,6.2131,6.2134,6.2316,6.2319,6.2321,6.2354,6.2352,6.235,6.2349,6.2535,6.2543,6.2551,0,0,0,0,0,0,0,0,0,0,0,0,0,6.1958,6.1804,6.2128,6.2172,6.2178,6.2316,6.2319,6.2322,6.2355,6.2352,6.235,6.2348,6.2533,6.2542,6.2552,6.2658,0,0,6.2581,6.2586,0,0,0,0,0,0,0,0,6.1949,6.197,6.2163,6.2169,6.2176,6.231,6.2271,6.2435,6.2355,6.2287,6.2349,6.2347,6.2463,6.2478,6.2519,6.2667,6.2675,6.2582,6.2588,6.2592,6.2595,0,0,0,0,0,0,0,6.1937,6.1962,6.2203,6.2166,6.2174,6.2181,6.2202,6.2302,6.2386,6.2293,6.2296,6.2318,6.2466,6.2509,6.2523,6.2678,6.2582,6.2591,6.2597,6.26,6.2926,6.2928,0,0,0,0,0,0,6.1919,6.1953,6.2197,6.2209,6.2054,6.2189,6.2212,6.2269,6.2385,6.24,6.232,6.2319,6.2494,6.2512,6.253,6.2665,6.2592,6.2601,6.2607,6.2923,6.2926,6.2929,0,0,0,0,0,0,6.1912,6.194,6.2189,6.2082,6.2114,6.2197,6.2261,6.2274,6.2317,6.2405,6.242,6.2349,6.2493,6.2516,6.2627,6.2672,6.2606,6.2614,6.292,6.2924,6.2928,6.2934,0,0,0,0,0,0,6.1902,6.1938,6.1979,6.2082,6.212,6.2284,6.2264,6.2279,6.2334,6.2335,6.2436,6.2451,6.2493,6.2612,6.2637,6.2684,6.2622,6.2916,6.2921,6.2926,6.293,6.2938,6.2944,0,0,0,0,0,6.189,6.1972,6.1981,6.2011,6.2174,6.2287,6.2308,6.2356,6.2338,6.238,6.2437,6.2447,6.2662,6.2623,6.2651,6.2702,6.2913,6.292,6.2926,6.2927,6.2936,6.2944,0,0,0,0,0,0,6.1871,6.1986,6.1998,6.2116,6.2192,6.2292,6.2348,6.2364,6.2445,6.2442,6.2497,6.2519,6.2628,6.2675,6.263,6.2812,6.2787,6.2799,6.2778,6.2787,6.2794,6.2781,6.263,0,0,0,0,0,6.188,6.1964,6.206,6.2154,6.2192,6.2263,6.2314,6.2345,6.2424,6.2456,6.2521,6.2597,6.2682,6.2737,6.282,6.2936,6.296,6.2985,6.2992,6.2997,6.3008,6.3076,6.3088,6.295,6.295,6.295,0,0,6.1901,6.1975,6.2023,6.2153,6.2215,6.2299,6.229,6.2379,6.2442,6.2469,6.2579,6.2629,6.2717,6.2832,6.2886,6.2876,6.3051,6.3005,6.3009,6.3017,6.3083,6.3096,6.3108,6.2955,6.2954,6.2953,0,0,6.1983,6.2046,6.2134,6.2196,6.2291,6.2338,6.2359,6.2458,6.2493,6.2604,6.2627,6.2702,6.2846,6.291,6.296,6.3067,6.308,6.3092,6.313,6.3195,6.3206,6.3216,6.3257,6.327,6.3102,6.3102,6.3102,0,6.1996,6.2126,6.2176,6.2266,6.2322,6.2352,6.2441,6.2499,6.2615,6.2654,6.264,6.2824,6.2886,6.3017,6.3043,6.3083,6.3109,6.3082,6.3201,6.3211,6.3222,6.3261,6.3276,6.3103,6.3103,6.3103,6.3103,0,6.2139,6.2228,6.2287,6.2402,6.2465,6.2553,6.2617,6.2674,6.2699,6.2747,6.2861,6.2935,6.3035,6.3068,6.3092,6.3203,6.3194,6.319,6.3166,6.3235,6.3273,6.3288,6.3104,6.3104,6.3104,6.3103,0,0,6.2215,6.2356,6.2378,6.2431,6.2538,6.2608,6.2697,6.2797,6.2846,6.2925,6.3003,6.3125,6.3123,6.3181,6.3212,6.3269,6.3352,6.3258,6.3261,6.3275,6.3481,6.3486,6.3502,6.336,6.3363,6.3366,6.3475,0,6.2311,6.2475,6.2523,6.2661,6.2745,6.2774,6.2853,6.2927,6.2974,6.3052,6.3103,6.3191,6.318,6.3215,6.3272,6.3329,6.3394,6.3322,6.3434,6.3437,6.3414,6.3522,6.3527,6.3626,6.349,6.3492,6.3494,0,6.2446,6.253,6.2677,6.2775,6.2812,6.2882,6.2979,6.3052,6.3136,6.3167,6.3232,6.3259,6.3354,6.3323,6.3455,6.3405,6.3453,6.3488,6.3493,6.3507,6.3472,6.3541,6.3659,6.3675,6.3517,6.3515,6.3514,0,6.249,6.2639,6.2747,6.2791,6.2908,6.2957,6.3008,6.309,6.3147,6.323,6.3268,6.336,6.3411,6.3481,6.3533,6.3505,6.3661,6.3634,6.369,6.3689,6.3724,6.3721,6.3853,6.375,6.375,6.3749,6.3749,0,6.2594,6.2683,6.2769,6.2836,6.2937,6.299,6.3088,6.314,6.3213,6.329,6.332,6.3391,6.3453,6.3532,6.3572,6.3677,6.3699,6.3727,6.3737,6.3726,6.3723,6.376,6.3756,6.3754,6.3753,6.3752,6.3751,0,6.2662,6.2722,6.2842,6.2944,6.2971,6.3041,6.3128,6.3193,6.3242,6.3339,6.3364,6.344,6.3536,6.3593,6.3713,6.374,6.3857,6.3862,6.3829,6.3834,6.3888,6.3883,6.4051,6.4076,6.3954,6.3955,6.3956,0,6.2726,6.2795,6.2905,6.296,6.3011,6.3098,6.3158,6.3213,6.3273,6.3375,6.3429,6.3526,6.3608,6.3758,6.3824,6.3916,6.3926,6.3978,6.394,6.3927,6.393,6.3926,6.3934,6.3985,6.3986,6.3987,6.3988,0,6.2834,6.2861,6.2946,6.3042,6.3113,6.319,6.3268,6.331,6.3378,6.3445,6.3544,6.3607,6.373,6.3827,6.3925,6.3976,6.3994,6.3999,6.4018,6.4008,6.3987,6.4002,6.3849,6.3995,6.3995,6.3994,6.3994,6.3993,6.2904,6.2968,6.3056,6.315,6.3214,6.3286,6.3354,6.3412,6.3496,6.3602,6.3629,6.3733,6.3816,6.395,6.4004,6.4086,6.4078,6.4104,6.4111,6.4117,6.412,6.3972,6.4103,6.4103,6.4103,6.4103,6.4103,0,6.3016,6.3074,6.316,6.3269,6.3343,6.3354,6.344,6.3501,6.3594,6.367,6.375,6.3865,6.3959,6.4032,6.4129,6.4181,6.4191,6.4204,6.4202,6.4214,6.412,6.4096,6.4194,6.4194,6.4194,6.4194,6.4194,6.4194,6.3083,6.3194,6.3231,6.3374,6.3431,6.3535,6.3584,6.365,6.3713,6.384,6.3919,6.3966,6.4042,6.4145,6.4232,6.4251,6.4286,6.4299,6.4319,6.423,6.4221,6.4211,6.4189,6.4305,6.4305,6.4407,6.4408,6.4408]}]]